Time,TemperatureF,DewpointF,PressureIn,WindDirection,WindDirectionDegrees,WindSpeedMPH,WindSpeedGustMPH,Humidity,HourlyPrecipIn,Conditions,Clouds,dailyrainin,SoftwareType,DateUTC
2013-04-05 00:00:00,56.6,51.2,30.10,NNE,23,0.0,3.0,82,0.00,,---,0.26,VWS V14.01,2013-04-05 07:00:00,
2013-04-05 00:05:00,56.5,51.1,30.11,NE,50,0.0,1.0,82,0.00,,---,0.00,VWS V14.01,2013-04-05 07:05:00,
2013-04-05 00:10:00,56.4,51.3,30.11,NE,34,0.0,2.0,83,0.00,,---,0.00,VWS V14.01,2013-04-05 07:10:00,
2013-04-05 00:15:00,56.4,51.3,30.11,SE,124,0.0,1.0,83,0.00,,---,0.00,VWS V14.01,2013-04-05 07:15:00,
2013-04-05 00:20:00,56.4,51.3,30.11,West,273,0.0,2.0,83,0.00,,---,0.00,VWS V14.01,2013-04-05 07:20:00,
2013-04-05 00:25:00,56.4,51.3,30.11,ENE,72,0.0,5.0,83,0.00,,---,0.00,VWS V14.01,2013-04-05 07:25:00,
2013-04-05 00:30:00,56.3,51.2,30.11,East,100,0.0,5.0,83,0.00,,---,0.00,VWS V14.01,2013-04-05 07:30:00,
2013-04-05 00:35:00,56.1,51.0,30.11,East,96,0.0,1.0,83,0.00,,---,0.00,VWS V14.01,2013-04-05 07:35:00,
2013-04-05 00:40:00,56.0,51.2,30.11,East,96,0.0,1.0,84,0.00,,---,0.00,VWS V14.01,2013-04-05 07:40:00,
2013-04-05 00:45:00,55.9,51.1,30.11,NW,308,0.0,1.0,84,0.00,,---,0.00,VWS V14.01,2013-04-05 07:45:00,
2013-04-05 00:50:00,55.7,51.0,30.11,West,277,0.0,2.0,84,0.00,,---,0.00,VWS V14.01,2013-04-05 07:50:00,
2013-04-05 00:55:00,55.6,50.8,30.11,SE,136,0.0,0.0,84,0.00,,---,0.00,VWS V14.01,2013-04-05 07:55:00,
2013-04-05 01:00:00,55.5,50.8,30.11,SE,136,0.0,0.0,84,0.00,,---,0.00,VWS V14.01,2013-04-05 08:00:00,
2013-04-05 01:05:00,55.6,50.5,30.11,ESE,108,0.0,4.0,83,0.00,,---,0.00,VWS V14.01,2013-04-05 08:05:00,
2013-04-05 01:10:00,55.6,50.2,30.12,SE,124,1.0,4.0,82,0.00,,---,0.00,VWS V14.01,2013-04-05 08:10:00,
2013-04-05 01:15:00,55.7,50.6,30.12,ESE,123,0.0,0.0,83,0.00,,---,0.00,VWS V14.01,2013-04-05 08:15:00,
2013-04-05 01:20:00,55.7,50.6,30.12,ESE,123,0.0,0.0,83,0.00,,---,0.00,VWS V14.01,2013-04-05 08:20:00,
2013-04-05 01:25:00,55.6,50.5,30.12,ESE,123,0.0,0.0,83,0.00,,---,0.00,VWS V14.01,2013-04-05 08:25:00,
2013-04-05 01:30:00,55.6,50.5,30.12,WSW,240,0.0,0.0,83,0.00,,---,0.00,VWS V14.01,2013-04-05 08:30:00,
2013-04-05 01:35:00,55.6,50.5,30.12,WSW,239,0.0,0.0,83,0.00,,---,0.00,VWS V14.01,2013-04-05 08:35:00,
2013-04-05 01:40:00,55.5,50.4,30.12,WSW,240,0.0,5.0,83,0.00,,---,0.00,VWS V14.01,2013-04-05 08:40:00,
2013-04-05 01:45:00,55.6,50.2,30.12,West,270,0.0,1.0,82,0.00,,---,0.00,VWS V14.01,2013-04-05 08:45:00,
2013-04-05 01:50:00,55.6,49.9,30.12,West,270,0.0,1.0,81,0.00,,---,0.00,VWS V14.01,2013-04-05 08:50:00,
2013-04-05 01:55:00,55.6,49.9,30.12,West,270,0.0,0.0,81,0.00,,---,0.00,VWS V14.01,2013-04-05 08:55:00,
2013-04-05 02:00:00,55.5,49.8,30.11,NW,309,0.0,1.0,81,0.00,,---,0.00,VWS V14.01,2013-04-05 09:00:00,
2013-04-05 02:05:00,55.5,49.8,30.11,WSW,237,0.0,0.0,81,0.00,,---,0.00,VWS V14.01,2013-04-05 09:05:00,
2013-04-05 02:10:00,55.5,49.8,30.11,WSW,237,0.0,0.0,81,0.00,,---,0.00,VWS V14.01,2013-04-05 09:10:00,
2013-04-05 02:15:00,55.5,49.4,30.11,NNW,336,0.0,3.0,80,0.00,,---,0.00,VWS V14.01,2013-04-05 09:15:00,
2013-04-05 02:20:00,55.5,49.4,30.12,WNW,291,0.0,3.0,80,0.00,,---,0.00,VWS V14.01,2013-04-05 09:20:00,
2013-04-05 02:25:00,55.5,49.8,30.11,WNW,291,0.0,0.0,81,0.00,,---,0.00,VWS V14.01,2013-04-05 09:25:00,
2013-04-05 02:30:00,55.4,49.7,30.12,WNW,291,0.0,1.0,81,0.00,,---,0.00,VWS V14.01,2013-04-05 09:30:00,
2013-04-05 02:35:00,55.4,49.7,30.12,WNW,291,0.0,0.0,81,0.00,,---,0.00,VWS V14.01,2013-04-05 09:35:00,
2013-04-05 02:40:00,55.3,49.6,30.12,WNW,291,0.0,0.0,81,0.00,,---,0.00,VWS V14.01,2013-04-05 09:40:00,
2013-04-05 02:45:00,55.3,49.9,30.12,WNW,291,0.0,0.0,82,0.00,,---,0.00,VWS V14.01,2013-04-05 09:45:00,
2013-04-05 02:50:00,55.1,49.7,30.11,WNW,291,0.0,0.0,82,0.00,,---,0.00,VWS V14.01,2013-04-05 09:50:00,
2013-04-05 02:55:00,55.1,49.7,30.11,WNW,291,0.0,0.0,82,0.00,,---,0.00,VWS V14.01,2013-04-05 09:55:00,
2013-04-05 03:00:00,54.9,49.8,30.11,WNW,291,0.0,0.0,83,0.00,,---,0.00,VWS V14.01,2013-04-05 10:00:00,
2013-04-05 03:05:00,54.8,50.1,30.11,WNW,291,0.0,0.0,84,0.00,,---,0.00,VWS V14.01,2013-04-05 10:05:00,
2013-04-05 03:10:00,54.7,50.0,30.11,WNW,291,0.0,0.0,84,0.00,,---,0.00,VWS V14.01,2013-04-05 10:10:00,
2013-04-05 03:15:00,54.7,50.0,30.11,WNW,291,0.0,0.0,84,0.00,,---,0.00,VWS V14.01,2013-04-05 10:15:00,
2013-04-05 03:20:00,54.6,49.9,30.11,WNW,291,0.0,0.0,84,0.00,,---,0.00,VWS V14.01,2013-04-05 10:20:00,
2013-04-05 03:25:00,54.5,49.8,30.11,WNW,284,0.0,1.0,84,0.00,,---,0.00,VWS V14.01,2013-04-05 10:25:00,
2013-04-05 03:31:00,54.3,49.9,30.11,WNW,284,0.0,1.0,85,0.00,,---,0.00,VWS V14.01,2013-04-05 10:31:00,
2013-04-05 03:36:00,54.2,49.8,30.11,WNW,284,0.0,0.0,85,0.00,,---,0.00,VWS V14.01,2013-04-05 10:36:00,
2013-04-05 03:41:00,54.2,49.8,30.11,WNW,284,0.0,0.0,85,0.00,,---,0.00,VWS V14.01,2013-04-05 10:41:00,
2013-04-05 03:46:00,54.1,50.0,30.12,WSW,248,0.0,1.0,86,0.00,,---,0.00,VWS V14.01,2013-04-05 10:46:00,
2013-04-05 03:51:00,54.0,49.9,30.12,WSW,248,0.0,1.0,86,0.00,,---,0.00,VWS V14.01,2013-04-05 10:51:00,
2013-04-05 03:55:00,54.0,49.9,30.11,WSW,248,0.0,0.0,86,0.00,,---,0.00,VWS V14.01,2013-04-05 10:55:00,
2013-04-05 04:00:00,53.9,49.8,30.11,WSW,248,0.0,0.0,86,0.00,,---,0.00,VWS V14.01,2013-04-05 11:00:00,
2013-04-05 04:05:00,54.0,49.9,30.11,WSW,248,0.0,0.0,86,0.00,,---,0.00,VWS V14.01,2013-04-05 11:05:00,
2013-04-05 04:10:00,53.9,49.8,30.11,WSW,248,0.0,0.0,86,0.00,,---,0.00,VWS V14.01,2013-04-05 11:10:00,
2013-04-05 04:15:00,53.9,49.8,30.11,WSW,248,0.0,0.0,86,0.00,,---,0.00,VWS V14.01,2013-04-05 11:15:00,
2013-04-05 04:20:00,54.0,49.9,30.11,WSW,248,0.0,0.0,86,0.00,,---,0.00,VWS V14.01,2013-04-05 11:20:00,
2013-04-05 04:26:00,54.0,49.9,30.11,WSW,248,0.0,0.0,86,0.00,,---,0.00,VWS V14.01,2013-04-05 11:26:00,
2013-04-05 04:30:00,54.0,49.9,30.11,WSW,248,0.0,0.0,86,0.00,,---,0.00,VWS V14.01,2013-04-05 11:30:00,
2013-04-05 04:35:00,54.0,49.9,30.11,WSW,248,0.0,0.0,86,0.00,,---,0.00,VWS V14.01,2013-04-05 11:35:00,
2013-04-05 04:40:00,54.1,49.7,30.11,ESE,102,0.0,1.0,85,0.00,,---,0.00,VWS V14.01,2013-04-05 11:40:00,
2013-04-05 04:45:00,54.2,49.8,30.11,ESE,106,0.0,1.0,85,0.00,,---,0.00,VWS V14.01,2013-04-05 11:45:00,
2013-04-05 04:50:00,54.4,49.7,30.11,ESE,110,0.0,1.0,84,0.00,,---,0.00,VWS V14.01,2013-04-05 11:50:00,
2013-04-05 04:55:00,54.5,49.8,30.11,ESE,110,0.0,1.0,84,0.00,,---,0.00,VWS V14.01,2013-04-05 11:55:00,
2013-04-05 05:00:00,54.6,49.9,30.11,ESE,110,0.0,1.0,84,0.00,,---,0.00,VWS V14.01,2013-04-05 12:00:00,
2013-04-05 05:05:00,54.6,49.9,30.11,ESE,110,0.0,0.0,84,0.00,,---,0.00,VWS V14.01,2013-04-05 12:05:00,
2013-04-05 05:10:00,54.6,49.9,30.11,ESE,110,0.0,0.0,84,0.00,,---,0.00,VWS V14.01,2013-04-05 12:10:00,
2013-04-05 05:15:00,54.6,50.2,30.11,ESE,110,0.0,0.0,85,0.00,,---,0.00,VWS V14.01,2013-04-05 12:15:00,
2013-04-05 05:20:00,54.6,50.2,30.11,ESE,110,0.0,0.0,85,0.00,,---,0.00,VWS V14.01,2013-04-05 12:20:00,
2013-04-05 05:25:00,54.6,50.2,30.11,ESE,110,0.0,0.0,85,0.00,,---,0.00,VWS V14.01,2013-04-05 12:25:00,
2013-04-05 05:30:00,54.6,50.2,30.12,ESE,110,0.0,0.0,85,0.00,,---,0.00,VWS V14.01,2013-04-05 12:30:00,
2013-04-05 05:35:00,54.6,50.2,30.11,ESE,110,0.0,0.0,85,0.00,,---,0.00,VWS V14.01,2013-04-05 12:35:00,
2013-04-05 05:40:00,54.6,50.2,30.11,ESE,110,0.0,0.0,85,0.00,,---,0.00,VWS V14.01,2013-04-05 12:40:00,
2013-04-05 05:45:00,54.6,50.2,30.11,ESE,110,0.0,0.0,85,0.00,,---,0.00,VWS V14.01,2013-04-05 12:45:00,
2013-04-05 05:50:00,54.6,50.2,30.12,ESE,110,0.0,0.0,85,0.00,,---,0.00,VWS V14.01,2013-04-05 12:50:00,
2013-04-05 05:55:00,54.6,50.2,30.12,ESE,110,0.0,0.0,85,0.00,,---,0.00,VWS V14.01,2013-04-05 12:55:00,
2013-04-05 06:00:00,54.6,50.2,30.12,ESE,110,0.0,0.0,85,0.00,,---,0.00,VWS V14.01,2013-04-05 13:00:00,
2013-04-05 06:05:00,54.6,50.2,30.12,ESE,110,0.0,0.0,85,0.00,,---,0.00,VWS V14.01,2013-04-05 13:05:00,
2013-04-05 06:10:00,54.6,50.2,30.11,ESE,110,0.0,0.0,85,0.00,,---,0.00,VWS V14.01,2013-04-05 13:10:00,
2013-04-05 06:15:00,54.6,50.2,30.12,ESE,110,0.0,0.0,85,0.00,,---,0.00,VWS V14.01,2013-04-05 13:15:00,
2013-04-05 06:20:00,54.6,50.2,30.12,ESE,110,0.0,0.0,85,0.00,,---,0.00,VWS V14.01,2013-04-05 13:20:00,
2013-04-05 06:25:00,54.6,50.2,30.12,ESE,110,0.0,0.0,85,0.00,,---,0.00,VWS V14.01,2013-04-05 13:25:00,
2013-04-05 06:30:00,54.6,50.2,30.12,ESE,110,0.0,0.0,85,0.00,,---,0.00,VWS V14.01,2013-04-05 13:30:00,
2013-04-05 06:35:00,54.6,50.2,30.12,ESE,110,0.0,0.0,85,0.00,,---,0.00,VWS V14.01,2013-04-05 13:35:00,
2013-04-05 06:40:00,54.6,50.2,30.12,ESE,110,0.0,0.0,85,0.00,,---,0.00,VWS V14.01,2013-04-05 13:40:00,
2013-04-05 06:45:00,54.6,50.2,30.12,ESE,110,0.0,0.0,85,0.00,,---,0.00,VWS V14.01,2013-04-05 13:45:00,
2013-04-05 06:50:00,54.6,50.2,30.12,ESE,110,0.0,0.0,85,0.00,,---,0.00,VWS V14.01,2013-04-05 13:50:00,
2013-04-05 06:55:00,54.6,50.2,30.12,ESE,110,0.0,0.0,85,0.00,,---,0.00,VWS V14.01,2013-04-05 13:55:00,
2013-04-05 07:00:00,54.6,50.2,30.12,ESE,110,0.0,0.0,85,0.00,,---,0.00,VWS V14.01,2013-04-05 14:00:00,
2013-04-05 07:05:00,54.6,50.2,30.12,ESE,110,0.0,0.0,85,0.00,,---,0.00,VWS V14.01,2013-04-05 14:05:00,
2013-04-05 07:10:00,54.6,50.2,30.12,ESE,110,0.0,0.0,85,0.00,,---,0.00,VWS V14.01,2013-04-05 14:10:00,
2013-04-05 07:15:00,54.6,50.2,30.12,ESE,110,0.0,0.0,85,0.00,,---,0.00,VWS V14.01,2013-04-05 14:15:00,
2013-04-05 07:20:00,54.6,50.2,30.12,ESE,110,0.0,0.0,85,0.00,,---,0.00,VWS V14.01,2013-04-05 14:20:00,
2013-04-05 07:25:00,52.8,50.5,30.13,ESE,110,0.0,0.0,92,0.00,,---,0.00,VWS V14.01,2013-04-05 14:25:00,
2013-04-05 07:30:00,52.9,50.6,30.13,ESE,110,0.0,0.0,92,0.00,,---,0.00,VWS V14.01,2013-04-05 14:30:00,
2013-04-05 07:35:00,53.0,50.7,30.13,ESE,110,0.0,0.0,92,0.00,,---,0.00,VWS V14.01,2013-04-05 14:35:00,
2013-04-05 07:40:00,53.3,51.3,30.13,ESE,110,0.0,0.0,93,0.00,,---,0.00,VWS V14.01,2013-04-05 14:40:00,
2013-04-05 07:45:00,54.0,52.0,30.13,ESE,110,0.0,1.0,93,0.00,,---,0.00,VWS V14.01,2013-04-05 14:45:00,
2013-04-05 07:50:00,54.4,52.4,30.13,ESE,110,0.0,1.0,93,0.00,,---,0.00,VWS V14.01,2013-04-05 14:50:00,
2013-04-05 07:55:00,54.2,52.2,30.13,ESE,110,0.0,0.0,93,0.00,,---,0.00,VWS V14.01,2013-04-05 14:55:00,
2013-04-05 08:00:00,54.2,51.9,30.13,ESE,110,0.0,0.0,92,0.00,,---,0.00,VWS V14.01,2013-04-05 15:00:00,
2013-04-05 08:05:00,54.2,51.9,30.13,ESE,110,0.0,0.0,92,0.00,,---,0.00,VWS V14.01,2013-04-05 15:05:00,
2013-04-05 08:10:00,54.1,51.5,30.14,ESE,110,0.0,0.0,91,0.00,,---,0.00,VWS V14.01,2013-04-05 15:10:00,
2013-04-05 08:15:00,54.2,51.6,30.14,ESE,110,0.0,0.0,91,0.00,,---,0.00,VWS V14.01,2013-04-05 15:15:00,
2013-04-05 08:20:00,54.3,51.7,30.15,ESE,110,0.0,0.0,91,0.00,,---,0.00,VWS V14.01,2013-04-05 15:20:00,
2013-04-05 08:25:00,54.3,51.4,30.15,ESE,110,0.0,0.0,90,0.00,,---,0.00,VWS V14.01,2013-04-05 15:25:00,
2013-04-05 08:30:00,54.5,51.0,30.15,ESE,110,0.0,0.0,88,0.00,,---,0.00,VWS V14.01,2013-04-05 15:30:00,
2013-04-05 08:35:00,54.7,51.2,30.15,ESE,110,0.0,0.0,88,0.00,,---,0.00,VWS V14.01,2013-04-05 15:35:00,
2013-04-05 08:40:00,55.0,51.5,30.15,East,80,0.0,1.0,88,0.00,,---,0.00,VWS V14.01,2013-04-05 15:40:00,
2013-04-05 08:45:00,55.2,51.7,30.15,East,80,0.0,0.0,88,0.00,,---,0.00,VWS V14.01,2013-04-05 15:45:00,
2013-04-05 08:50:00,55.4,51.6,30.15,ESE,117,0.0,0.0,87,0.00,,---,0.00,VWS V14.01,2013-04-05 15:50:00,
2013-04-05 08:55:00,55.4,51.6,30.15,ESE,117,0.0,0.0,87,0.00,,---,0.00,VWS V14.01,2013-04-05 15:55:00,
2013-04-05 09:00:00,55.6,51.8,30.15,ENE,77,0.0,0.0,87,0.00,,---,0.00,VWS V14.01,2013-04-05 16:00:00,
2013-04-05 09:05:00,55.9,52.1,30.15,ENE,77,0.0,0.0,87,0.00,,---,0.00,VWS V14.01,2013-04-05 16:05:00,
2013-04-05 09:10:00,56.1,52.0,30.15,ENE,77,0.0,0.0,86,0.00,,---,0.00,VWS V14.01,2013-04-05 16:10:00,
2013-04-05 09:15:00,56.5,52.0,30.15,ENE,77,0.0,0.0,85,0.00,,---,0.00,VWS V14.01,2013-04-05 16:15:00,
2013-04-05 09:20:00,57.1,52.6,30.14,SE,134,0.0,1.0,85,0.00,,---,0.00,VWS V14.01,2013-04-05 16:20:00,
2013-04-05 09:25:00,57.8,52.7,30.14,WSW,250,0.0,2.0,83,0.00,,---,0.00,VWS V14.01,2013-04-05 16:25:00,
2013-04-05 09:30:00,58.2,52.4,30.14,South,188,0.0,2.0,81,0.00,,---,0.00,VWS V14.01,2013-04-05 16:30:00,
2013-04-05 09:36:00,58.3,52.2,30.14,NE,40,0.0,1.0,80,0.00,,---,0.00,VWS V14.01,2013-04-05 16:36:00,
2013-04-05 09:41:00,58.4,51.9,30.14,NNW,348,0.0,4.0,79,0.00,,---,0.00,VWS V14.01,2013-04-05 16:41:00,
2013-04-05 09:46:00,58.5,51.7,30.14,West,263,0.0,4.0,78,0.00,,---,0.00,VWS V14.01,2013-04-05 16:46:00,
2013-04-05 09:50:00,58.9,52.1,30.14,WNW,284,1.0,4.0,78,0.00,,---,0.00,VWS V14.01,2013-04-05 16:50:00,
2013-04-05 09:55:00,58.9,51.7,30.14,WNW,292,0.0,4.0,77,0.00,,---,0.00,VWS V14.01,2013-04-05 16:55:00,
2013-04-05 10:00:00,59.0,51.8,30.14,West,265,2.0,6.0,77,0.00,,---,0.00,VWS V14.01,2013-04-05 17:00:00,
2013-04-05 10:05:00,59.3,51.4,30.14,SE,124,0.0,7.0,75,0.00,,---,0.00,VWS V14.01,2013-04-05 17:05:00,
2013-04-05 10:10:00,60.4,51.7,30.14,ESE,102,1.0,7.0,73,0.00,,---,0.00,VWS V14.01,2013-04-05 17:10:00,
2013-04-05 10:15:00,61.0,51.5,30.14,SE,125,0.0,3.0,71,0.00,,---,0.00,VWS V14.01,2013-04-05 17:15:00,
2013-04-05 10:20:00,62.0,51.7,30.14,ENE,71,0.0,3.0,69,0.00,,---,0.00,VWS V14.01,2013-04-05 17:20:00,
2013-04-05 10:26:00,62.5,51.8,30.14,ENE,69,0.0,3.0,68,0.00,,---,0.00,VWS V14.01,2013-04-05 17:26:00,
2013-04-05 10:31:00,62.7,51.6,30.15,WNW,300,1.0,3.0,67,0.00,,---,0.00,VWS V14.01,2013-04-05 17:31:00,
2013-04-05 10:36:00,62.7,51.6,30.15,NW,319,0.0,4.0,67,0.00,,---,0.00,VWS V14.01,2013-04-05 17:36:00,
2013-04-05 10:41:00,62.4,51.7,30.15,West,270,3.0,4.0,68,0.00,,---,0.00,VWS V14.01,2013-04-05 17:41:00,
2013-04-05 10:46:00,62.1,51.8,30.15,NNW,348,0.0,3.0,69,0.00,,---,0.00,VWS V14.01,2013-04-05 17:46:00,
2013-04-05 10:51:00,62.3,51.2,30.16,WNW,294,0.0,4.0,67,0.00,,---,0.00,VWS V14.01,2013-04-05 17:51:00,
2013-04-05 10:56:00,61.9,50.8,30.15,NNW,333,0.0,5.0,67,0.00,,---,0.00,VWS V14.01,2013-04-05 17:56:00,
2013-04-05 11:01:00,61.6,50.5,30.15,NW,311,0.0,5.0,67,0.00,,---,0.00,VWS V14.01,2013-04-05 18:01:00,
2013-04-05 11:06:00,62.0,51.3,30.15,ESE,111,1.0,1.0,68,0.00,,---,0.00,VWS V14.01,2013-04-05 18:06:00,
2013-04-05 11:11:00,61.7,51.0,30.15,NNW,327,0.0,11.0,68,0.00,,---,0.00,VWS V14.01,2013-04-05 18:11:00,
2013-04-05 11:16:00,61.1,50.9,30.15,West,275,2.0,7.0,69,0.00,,---,0.00,VWS V14.01,2013-04-05 18:16:00,
2013-04-05 11:21:00,61.0,51.2,30.15,WSW,254,0.0,7.0,70,0.00,,---,0.00,VWS V14.01,2013-04-05 18:21:00,
2013-04-05 11:26:00,61.6,51.7,30.15,NNW,328,3.0,6.0,70,0.00,,---,0.00,VWS V14.01,2013-04-05 18:26:00,
2013-04-05 11:31:00,62.0,51.7,30.16,West,281,1.0,6.0,69,0.00,,---,0.00,VWS V14.01,2013-04-05 18:31:00,
2013-04-05 11:36:00,62.3,51.6,30.16,WSW,242,1.0,2.0,68,0.00,,---,0.00,VWS V14.01,2013-04-05 18:36:00,
2013-04-05 11:41:00,62.6,51.9,30.16,SE,126,0.0,4.0,68,0.00,,---,0.00,VWS V14.01,2013-04-05 18:41:00,
2013-04-05 11:46:00,63.6,52.5,30.16,WNW,282,3.0,5.0,67,0.00,,---,0.00,VWS V14.01,2013-04-05 18:46:00,
2013-04-05 11:51:00,63.6,51.6,30.16,NNW,346,0.0,5.0,65,0.00,,---,0.00,VWS V14.01,2013-04-05 18:51:00,
2013-04-05 11:56:00,62.8,51.7,30.16,WSW,238,0.0,4.0,67,0.00,,---,0.00,VWS V14.01,2013-04-05 18:56:00,
2013-04-05 12:01:00,62.3,52.0,30.16,NNW,329,4.0,4.0,69,0.00,,---,0.00,VWS V14.01,2013-04-05 19:01:00,
2013-04-05 12:06:00,61.7,51.8,30.16,NNW,329,1.0,5.0,70,0.00,,---,0.00,VWS V14.01,2013-04-05 19:06:00,
2013-04-05 12:11:00,60.9,51.8,30.17,West,269,0.0,6.0,72,0.00,,---,0.00,VWS V14.01,2013-04-05 19:11:00,
2013-04-05 12:16:00,60.5,51.4,30.17,West,280,2.0,11.0,72,0.00,,---,0.00,VWS V14.01,2013-04-05 19:16:00,
2013-04-05 12:21:00,60.2,51.5,30.17,West,259,0.0,2.0,73,0.00,,---,0.00,VWS V14.01,2013-04-05 19:21:00,
2013-04-05 12:26:00,59.9,51.6,30.17,West,270,2.0,4.0,74,0.00,,---,0.00,VWS V14.01,2013-04-05 19:26:00,
2013-04-05 12:31:00,59.8,51.5,30.17,WNW,298,0.0,1.0,74,0.00,,---,0.00,VWS V14.01,2013-04-05 19:31:00,
2013-04-05 12:37:00,59.8,51.1,30.17,WSW,244,0.0,2.0,73,0.00,,---,0.00,VWS V14.01,2013-04-05 19:37:00,
2013-04-05 12:42:00,60.0,51.3,30.17,West,281,0.0,2.0,73,0.00,,---,0.00,VWS V14.01,2013-04-05 19:42:00,
2013-04-05 12:46:00,60.2,51.2,30.17,West,265,3.0,3.0,72,0.00,,---,0.00,VWS V14.01,2013-04-05 19:46:00,
2013-04-05 12:51:00,60.5,51.1,30.17,North,355,1.0,1.0,71,0.00,,---,0.00,VWS V14.01,2013-04-05 19:51:00,
2013-04-05 12:56:00,60.8,51.0,30.17,WNW,294,1.0,4.0,70,0.00,,---,0.00,VWS V14.01,2013-04-05 19:56:00,
2013-04-05 13:01:00,61.2,51.7,30.17,WSW,256,2.0,2.0,71,0.00,,---,0.00,VWS V14.01,2013-04-05 20:01:00,
2013-04-05 13:06:00,61.4,51.2,30.16,WNW,296,5.0,10.0,69,0.00,,---,0.00,VWS V14.01,2013-04-05 20:06:00,
2013-04-05 13:12:00,61.4,51.5,30.16,WNW,303,3.0,5.0,70,0.00,,---,0.00,VWS V14.01,2013-04-05 20:12:00,
2013-04-05 13:16:00,61.6,51.7,30.16,SE,132,2.0,5.0,70,0.00,,---,0.00,VWS V14.01,2013-04-05 20:16:00,
2013-04-05 13:22:00,61.8,51.1,30.16,West,266,9.0,9.0,68,0.00,,---,0.00,VWS V14.01,2013-04-05 20:22:00,
2013-04-05 13:27:00,60.9,50.7,30.15,West,263,0.0,9.0,69,0.00,,---,0.00,VWS V14.01,2013-04-05 20:27:00,
2013-04-05 13:32:00,60.6,50.8,30.14,WSW,244,0.0,0.0,70,0.00,,---,0.00,VWS V14.01,2013-04-05 20:32:00,
2013-04-05 13:37:00,60.8,50.6,30.14,NW,315,0.0,3.0,69,0.00,,---,0.00,VWS V14.01,2013-04-05 20:37:00,
2013-04-05 13:42:00,61.5,51.2,30.14,WNW,290,0.0,2.0,69,0.00,,---,0.00,VWS V14.01,2013-04-05 20:42:00,
2013-04-05 13:47:00,62.2,51.1,30.13,West,276,0.0,5.0,67,0.00,,---,0.00,VWS V14.01,2013-04-05 20:47:00,
2013-04-05 13:52:00,62.5,51.0,30.13,WSW,243,0.0,0.0,66,0.00,,---,0.00,VWS V14.01,2013-04-05 20:52:00,
2013-04-05 13:57:00,62.7,51.2,30.13,WNW,282,1.0,4.0,66,0.00,,---,0.00,VWS V14.01,2013-04-05 20:57:00,
2013-04-05 14:02:00,62.7,51.2,30.13,WSW,241,1.0,2.0,66,0.00,,---,0.00,VWS V14.01,2013-04-05 21:02:00,
2013-04-05 14:07:00,62.5,51.0,30.13,WSW,251,1.0,2.0,66,0.00,,---,0.00,VWS V14.01,2013-04-05 21:07:00,
2013-04-05 14:12:00,62.6,51.5,30.13,West,269,0.0,1.0,67,0.00,,---,0.00,VWS V14.01,2013-04-05 21:12:00,
2013-04-05 14:17:00,62.9,51.4,30.14,WSW,238,2.0,7.0,66,0.00,,---,0.00,VWS V14.01,2013-04-05 21:17:00,
2013-04-05 14:22:00,62.6,51.5,30.14,West,260,1.0,4.0,67,0.00,,---,0.00,VWS V14.01,2013-04-05 21:22:00,
2013-04-05 14:27:00,62.3,51.2,30.14,South,184,0.0,4.0,67,0.00,,---,0.00,VWS V14.01,2013-04-05 21:27:00,
2013-04-05 14:32:00,62.1,51.0,30.14,SSE,152,0.0,1.0,67,0.00,,---,0.00,VWS V14.01,2013-04-05 21:32:00,
2013-04-05 14:37:00,62.4,51.3,30.14,SSE,147,1.0,6.0,67,0.00,,---,0.00,VWS V14.01,2013-04-05 21:37:00,
2013-04-05 14:42:00,62.2,50.7,30.13,ESE,121,2.0,6.0,66,0.00,,---,0.00,VWS V14.01,2013-04-05 21:42:00,
2013-04-05 14:47:00,62.3,51.2,30.13,NNE,15,1.0,6.0,67,0.00,,---,0.00,VWS V14.01,2013-04-05 21:47:00,
2013-04-05 14:52:00,62.2,51.1,30.14,SW,235,0.0,0.0,67,0.00,,---,0.00,VWS V14.01,2013-04-05 21:52:00,
2013-04-05 14:57:00,61.7,50.6,30.14,NW,311,1.0,5.0,67,0.00,,---,0.00,VWS V14.01,2013-04-05 21:57:00,
2013-04-05 15:02:00,61.2,50.2,30.13,WNW,295,0.0,2.0,67,0.00,,---,0.00,VWS V14.01,2013-04-05 22:02:00,
2013-04-05 15:07:00,61.2,50.6,30.13,West,275,2.0,3.0,68,0.00,,---,0.00,VWS V14.01,2013-04-05 22:07:00,
2013-04-05 15:12:00,61.5,51.2,30.13,SSE,147,9.0,9.0,69,0.00,,---,0.00,VWS V14.01,2013-04-05 22:12:00,
2013-04-05 15:17:00,62.4,50.9,30.12,SE,140,1.0,9.0,66,0.00,,---,0.00,VWS V14.01,2013-04-05 22:17:00,
2013-04-05 15:22:00,62.8,50.9,30.12,West,279,2.0,3.0,65,0.00,,---,0.00,VWS V14.01,2013-04-05 22:22:00,
2013-04-05 15:27:00,62.4,50.5,30.12,WNW,297,0.0,5.0,65,0.00,,---,0.00,VWS V14.01,2013-04-05 22:27:00,
2013-04-05 15:32:00,62.1,51.0,30.12,WNW,300,1.0,1.0,67,0.00,,---,0.00,VWS V14.01,2013-04-05 22:32:00,
2013-04-05 15:37:00,62.2,51.1,30.12,NNW,342,0.0,4.0,67,0.00,,---,0.00,VWS V14.01,2013-04-05 22:37:00,
2013-04-05 15:42:00,62.8,51.3,30.12,NNE,21,1.0,2.0,66,0.00,,---,0.00,VWS V14.01,2013-04-05 22:42:00,
2013-04-05 15:47:00,63.5,51.5,30.12,WNW,297,0.0,6.0,65,0.00,,---,0.00,VWS V14.01,2013-04-05 22:47:00,
2013-04-05 15:52:00,63.3,51.3,30.12,NNW,332,3.0,9.0,65,0.00,,---,0.00,VWS V14.01,2013-04-05 22:52:00,
2013-04-05 15:57:00,62.6,51.1,30.13,West,264,1.0,9.0,66,0.00,,---,0.00,VWS V14.01,2013-04-05 22:57:00,
2013-04-05 16:02:00,62.0,50.9,30.12,WNW,294,10.0,10.0,67,0.00,,---,0.00,VWS V14.01,2013-04-05 23:02:00,
2013-04-05 16:07:00,61.5,50.5,30.12,West,261,3.0,10.0,67,0.00,,---,0.00,VWS V14.01,2013-04-05 23:07:00,
2013-04-05 16:12:00,60.9,50.3,30.13,WNW,296,2.0,2.0,68,0.00,,---,0.00,VWS V14.01,2013-04-05 23:12:00,
2013-04-05 16:17:00,60.7,50.5,30.12,SSW,202,0.0,4.0,69,0.00,,---,0.00,VWS V14.01,2013-04-05 23:17:00,
2013-04-05 16:22:00,60.8,51.0,30.12,NW,314,1.0,2.0,70,0.00,,---,0.00,VWS V14.01,2013-04-05 23:22:00,
2013-04-05 16:27:00,61.0,50.8,30.12,NNW,336,1.0,4.0,69,0.00,,---,0.00,VWS V14.01,2013-04-05 23:27:00,
2013-04-05 16:32:00,61.2,50.6,30.12,NNW,327,4.0,4.0,68,0.00,,---,0.00,VWS V14.01,2013-04-05 23:32:00,
2013-04-05 16:37:00,61.6,50.5,30.12,North,5,3.0,4.0,67,0.00,,---,0.00,VWS V14.01,2013-04-05 23:37:00,
2013-04-05 16:42:00,62.3,50.8,30.12,WSW,258,1.0,3.0,66,0.00,,---,0.00,VWS V14.01,2013-04-05 23:42:00,
2013-04-05 16:47:00,62.6,50.7,30.12,West,281,2.0,6.0,65,0.00,,---,0.00,VWS V14.01,2013-04-05 23:47:00,
2013-04-05 16:52:00,62.5,50.6,30.12,West,265,2.0,3.0,65,0.00,,---,0.00,VWS V14.01,2013-04-05 23:52:00,
2013-04-05 16:57:00,62.2,50.3,30.12,West,273,2.0,6.0,65,0.00,,---,0.00,VWS V14.01,2013-04-05 23:57:00,
2013-04-05 17:02:00,61.8,50.3,30.12,WNW,286,0.0,5.0,66,0.00,,---,0.00,VWS V14.01,2013-04-06 00:02:00,
2013-04-05 17:07:00,61.7,50.2,30.11,SW,225,0.0,5.0,66,0.00,,---,0.00,VWS V14.01,2013-04-06 00:07:00,
2013-04-05 17:12:00,61.6,50.1,30.12,West,259,0.0,0.0,66,0.00,,---,0.00,VWS V14.01,2013-04-06 00:12:00,
2013-04-05 17:17:00,61.3,50.7,30.12,West,269,1.0,3.0,68,0.00,,---,0.00,VWS V14.01,2013-04-06 00:17:00,
2013-04-05 17:22:00,61.0,51.2,30.12,South,184,0.0,1.0,70,0.00,,---,0.00,VWS V14.01,2013-04-06 00:22:00,
2013-04-05 17:27:00,61.0,51.2,30.12,West,275,0.0,3.0,70,0.00,,---,0.00,VWS V14.01,2013-04-06 00:27:00,
2013-04-05 17:32:00,60.9,50.3,30.12,NE,35,0.0,0.0,68,0.00,,---,0.00,VWS V14.01,2013-04-06 00:32:00,
2013-04-05 17:37:00,60.6,50.0,30.12,WNW,286,2.0,3.0,68,0.00,,---,0.00,VWS V14.01,2013-04-06 00:37:00,
2013-04-05 17:42:00,60.2,50.0,30.12,WSW,246,3.0,3.0,69,0.00,,---,0.00,VWS V14.01,2013-04-06 00:42:00,
2013-04-05 17:47:00,59.8,50.4,30.11,WNW,284,1.0,6.0,71,0.00,,---,0.00,VWS V14.01,2013-04-06 00:47:00,
2013-04-05 17:52:00,59.4,50.4,30.12,WSW,244,0.0,4.0,72,0.00,,---,0.00,VWS V14.01,2013-04-06 00:52:00,
2013-04-05 17:57:00,59.0,50.4,30.12,WSW,256,0.0,7.0,73,0.00,,---,0.00,VWS V14.01,2013-04-06 00:57:00,
2013-04-05 18:02:00,59.0,50.4,30.12,South,182,0.0,0.0,73,0.00,,---,0.00,VWS V14.01,2013-04-06 01:02:00,
2013-04-05 18:07:00,59.0,50.4,30.12,NW,304,0.0,4.0,73,0.00,,---,0.00,VWS V14.01,2013-04-06 01:07:00,
2013-04-05 18:12:00,59.0,50.4,30.11,NW,306,0.0,1.0,73,0.00,,---,0.00,VWS V14.01,2013-04-06 01:12:00,
2013-04-05 18:17:00,59.0,50.4,30.11,SE,130,0.0,4.0,73,0.00,,---,0.00,VWS V14.01,2013-04-06 01:17:00,
2013-04-05 18:22:00,59.0,50.4,30.11,ESE,117,0.0,0.0,73,0.00,,---,0.00,VWS V14.01,2013-04-06 01:22:00,
2013-04-05 18:27:00,59.0,50.4,30.11,WNW,294,0.0,4.0,73,0.00,,---,0.00,VWS V14.01,2013-04-06 01:27:00,
2013-04-05 18:32:00,59.0,50.7,30.12,WNW,293,0.0,0.0,74,0.00,,---,0.00,VWS V14.01,2013-04-06 01:32:00,
2013-04-05 18:37:00,58.8,50.2,30.12,WNW,298,2.0,2.0,73,0.00,,---,0.00,VWS V14.01,2013-04-06 01:37:00,
2013-04-05 18:42:00,58.6,50.0,30.13,WSW,248,0.0,0.0,73,0.00,,---,0.00,VWS V14.01,2013-04-06 01:42:00,
2013-04-05 18:47:00,58.4,50.2,30.14,WNW,284,0.0,3.0,74,0.00,,---,0.00,VWS V14.01,2013-04-06 01:47:00,
2013-04-05 18:52:00,58.2,50.3,30.13,West,265,0.0,0.0,75,0.00,,---,0.00,VWS V14.01,2013-04-06 01:52:00,
2013-04-05 18:57:00,58.1,50.6,30.12,West,265,0.0,1.0,76,0.00,,---,0.00,VWS V14.01,2013-04-06 01:57:00,
2013-04-05 19:02:00,58.0,49.8,30.11,West,265,0.0,0.0,74,0.00,,---,0.00,VWS V14.01,2013-04-06 02:02:00,
2013-04-05 19:07:00,57.8,49.9,30.11,SSW,192,0.0,7.0,75,0.00,,---,0.00,VWS V14.01,2013-04-06 02:07:00,
2013-04-05 19:12:00,57.6,49.8,30.11,SSW,192,0.0,0.0,75,0.00,,---,0.00,VWS V14.01,2013-04-06 02:12:00,
2013-04-05 19:17:00,57.5,49.7,30.11,SSW,192,0.0,0.0,75,0.00,,---,0.00,VWS V14.01,2013-04-06 02:17:00,
2013-04-05 19:22:00,57.3,49.5,30.11,SSW,192,0.0,0.0,75,0.00,,---,0.00,VWS V14.01,2013-04-06 02:22:00,
2013-04-05 19:27:00,57.1,49.3,30.10,SSW,192,0.0,0.0,75,0.00,,---,0.00,VWS V14.01,2013-04-06 02:27:00,
2013-04-05 19:32:00,56.9,49.4,30.11,NW,324,0.0,0.0,76,0.00,,---,0.00,VWS V14.01,2013-04-06 02:32:00,
2013-04-05 19:37:00,56.6,49.1,30.11,NW,304,1.0,6.0,76,0.00,,---,0.00,VWS V14.01,2013-04-06 02:37:00,
2013-04-05 19:42:00,56.4,49.3,30.12,WNW,293,3.0,3.0,77,0.00,,---,0.00,VWS V14.01,2013-04-06 02:42:00,
2013-04-05 19:47:00,56.3,49.5,30.12,West,281,0.0,3.0,78,0.00,,---,0.00,VWS V14.01,2013-04-06 02:47:00,
2013-04-05 19:52:00,56.1,49.3,30.12,West,281,0.0,0.0,78,0.00,,---,0.00,VWS V14.01,2013-04-06 02:52:00,
2013-04-05 19:57:00,55.9,49.2,30.11,NNE,18,0.0,3.0,78,0.00,,---,0.00,VWS V14.01,2013-04-06 02:57:00,
2013-04-05 20:02:00,55.7,49.3,30.12,NW,325,0.0,0.0,79,0.00,,---,0.00,VWS V14.01,2013-04-06 03:02:00,
2013-04-05 20:07:00,55.5,49.1,30.12,NE,49,0.0,1.0,79,0.00,,---,0.00,VWS V14.01,2013-04-06 03:07:00,
2013-04-05 20:12:00,55.4,49.0,30.12,SE,129,0.0,0.0,79,0.00,,---,0.00,VWS V14.01,2013-04-06 03:12:00,